| time (UTC) | temp F | wind direction | speed MPH | gust MPH | rain 1hr in | rain 24hr in | rain mn in | humidity % | barometer mb |
| 20260508084327 | 60 | 119 | 0.0 | 0.0 | 0.00 | 0.00 | 0.00 | 90 | 1014.7 |
| 20260508083338 | 60 | 119 | 0.0 | 0.0 | 0.00 | 0.00 | 0.00 | 89 | 1015.1 |
| 20260508082328 | 60 | 119 | 0.0 | 0.0 | 0.00 | 0.00 | 0.00 | 89 | 1015.0 |
| 20260508081339 | 60 | 119 | 0.0 | 0.0 | 0.00 | 0.00 | 0.00 | 89 | 1014.7 |
| 20260508080329 | 60 | 119 | 0.0 | 0.0 | 0.00 | 0.00 | 0.00 | 90 | 1014.5 |
| 20260508075338 | 59 | 119 | 0.0 | 0.0 | 0.00 | 0.00 | 0.00 | 91 | 1014.6 |
| 20260508074330 | 59 | 307 | 0.0 | 0.0 | 0.00 | 0.00 | 0.00 | 92 | 1014.6 |
| 20260508073340 | 59 | 307 | 0.0 | 0.0 | 0.00 | 0.00 | 0.00 | 92 | 1014.7 |
| 20260508072330 | 58 | 307 | 0.0 | 0.0 | 0.00 | 0.00 | 0.00 | 93 | 1015.0 |
| 20260508071342 | 58 | 307 | 0.0 | 0.0 | 0.00 | 0.00 | 0.00 | 93 | 1015.0 |
| 20260508070332 | 58 | 307 | 0.0 | 1.0 | 0.00 | 0.00 | 0.00 | 93 | 1015.2 |
| 20260508065343 | 58 | 307 | 0.0 | 1.0 | 0.00 | 0.00 | 0.00 | 93 | 1015.5 |
| 20260508064335 | 58 | 307 | 0.0 | 0.0 | 0.00 | 0.00 | 0.00 | 93 | 1015.5 |
| 20260508063346 | 58 | 307 | 0.0 | 0.0 | 0.00 | 0.00 | 0.00 | 92 | 1015.8 |
| 20260508062338 | 58 | 307 | 0.0 | 0.0 | 0.00 | 0.00 | 0.00 | 92 | 1015.5 |
| 20260508061341 | 58 | 307 | 0.0 | 0.0 | 0.00 | 0.00 | 0.00 | 92 | 1015.7 |
| 20260508060323 | 58 | 307 | 0.0 | 2.0 | 0.00 | 0.00 | 0.00 | 91 | 1015.8 |
| 20260508055345 | 58 | 271 | 0.0 | 1.0 | 0.00 | 0.00 | 0.00 | 91 | 1015.8 |
| 20260508054326 | 58 | 271 | 0.0 | 1.0 | 0.00 | 0.00 | 0.00 | 91 | 1015.5 |
| 20260508053338 | 58 | 271 | 0.0 | 1.0 | 0.00 | 0.00 | 0.00 | 92 | 1015.5 |
| 20260508052329 | 58 | 271 | 0.0 | 1.0 | 0.00 | 0.00 | 0.00 | 92 | 1015.8 |
| 20260508051338 | 59 | 271 | 0.0 | 0.0 | 0.00 | 0.00 | 0.00 | 92 | 1015.6 |
| 20260508050323 | 59 | 271 | 0.0 | 1.0 | 0.00 | 0.00 | 0.00 | 92 | 1015.7 |
| 20260508045333 | 59 | 271 | 0.0 | 0.0 | 0.00 | 0.00 | 0.00 | 91 | 1015.9 |
| 20260508044324 | 59 | 271 | 0.0 | 2.0 | 0.00 | 0.00 | 0.00 | 92 | 1016.2 |
| 20260508043336 | 59 | 257 | 0.0 | 1.0 | 0.00 | 0.00 | 0.00 | 92 | 1016.1 |
| 20260508042328 | 59 | 257 | 0.0 | 1.0 | 0.00 | 0.00 | 0.00 | 92 | 1015.7 |
| 20260508041339 | 59 | 257 | 0.0 | 1.0 | 0.00 | 0.00 | 0.00 | 90 | 1016.0 |
| 20260508040330 | 59 | 257 | 0.0 | 1.0 | 0.00 | 0.00 | 0.00 | 90 | 1016.2 |
| 20260508035338 | 59 | 257 | 0.0 | 0.0 | 0.00 | 0.00 | 0.00 | 89 | 1016.1 |
| 20260508034329 | 60 | 257 | 0.0 | 1.0 | 0.00 | 0.00 | 0.00 | 88 | 1016.5 |
| 20260508033341 | 60 | 257 | 0.0 | 2.0 | 0.00 | 0.00 | 0.00 | 87 | 1016.7 |
| 20260508032333 | 61 | 176 | 0.0 | 2.0 | 0.00 | 0.00 | 0.00 | 87 | 1016.2 |
| 20260508031344 | 61 | 8 | 0.0 | 1.0 | 0.00 | 0.00 | 0.00 | 86 | 1016.4 |
| 20260508030335 | 61 | 8 | 0.0 | 1.0 | 0.00 | 0.00 | 0.00 | 86 | 1016.1 |
| 20260508025347 | 61 | 8 | 0.0 | 2.0 | 0.00 | 0.00 | 0.00 | 85 | 1015.5 |
| 20260508024339 | 61 | 8 | 0.0 | 1.0 | 0.00 | 0.00 | 0.00 | 85 | 1015.4 |
| 20260508023350 | 61 | 8 | 1.0 | 3.0 | 0.00 | 0.00 | 0.00 | 86 | 1015.1 |
| 20260508022327 | 61 | 9 | 0.0 | 3.0 | 0.00 | 0.00 | 0.00 | 86 | 1014.8 |
| 20260508021347 | 61 | 90 | 0.0 | 2.0 | 0.00 | 0.00 | 0.00 | 85 | 1014.8 |
| 20260508020330 | 62 | 90 | 0.0 | 1.0 | 0.00 | 0.00 | 0.00 | 84 | 1014.7 |
| 20260508015337 | 62 | 91 | 2.0 | 5.0 | 0.00 | 0.00 | 0.00 | 83 | 1014.7 |
| 20260508014329 | 62 | 85 | 3.0 | 4.0 | 0.00 | 0.00 | 0.00 | 83 | 1014.7 |
| 20260508013340 | 62 | 20 | 0.0 | 3.0 | 0.00 | 0.00 | 0.00 | 84 | 1014.9 |
| 20260508012330 | 62 | 18 | 2.0 | 4.0 | 0.00 | 0.00 | 0.00 | 83 | 1014.8 |
| 20260508011341 | 63 | 76 | 1.0 | 4.0 | 0.00 | 0.00 | 0.00 | 82 | 1014.6 |
| 20260508010331 | 63 | 96 | 0.0 | 2.0 | 0.00 | 0.00 | 0.00 | 81 | 1014.8 |
| 20260508005322 | 63 | 95 | 0.0 | 2.0 | 0.00 | 0.00 | 0.00 | 79 | 1015.1 |
| 20260508004332 | 63 | 19 | 1.0 | 3.0 | 0.00 | 0.00 | 0.00 | 80 | 1015.4 |
| 20260508003323 | 64 | 9 | 3.0 | 5.0 | 0.00 | 0.00 | 0.00 | 79 | 1015.3 |
| 20260508002333 | 64 | 38 | 1.0 | 3.0 | 0.00 | 0.00 | 0.00 | 78 | 1015.3 |
| 20260508001341 | 65 | 35 | 2.0 | 4.0 | 0.00 | 0.00 | 0.00 | 76 | 1015.5 |
| 20260508000334 | 65 | 32 | 1.0 | 4.0 | 0.00 | 0.00 | 0.00 | 77 | 1015.7 |
| 20260507235343 | 66 | 359 | 0.0 | 3.0 | 0.00 | 0.00 | 0.00 | 77 | 1016.2 |
| 20260507234333 | 66 | 359 | 0.0 | 4.0 | 0.00 | 0.00 | 0.00 | 75 | 1016.4 |
| 20260507233343 | 66 | 91 | 0.0 | 1.0 | 0.00 | 0.00 | 0.00 | 74 | 1016.5 |
| 20260507232334 | 65 | 91 | 1.0 | 5.0 | 0.00 | 0.00 | 0.00 | 75 | 1015.7 |
| 20260507231346 | 65 | 76 | 2.0 | 4.0 | 0.00 | 0.00 | 0.00 | 75 | 1015.3 |
| 20260507230334 | 65 | 41 | 0.0 | 6.0 | 0.00 | 0.00 | 0.00 | 75 | 1015.8 |
| 20260507225345 | 65 | 30 | 2.0 | 5.0 | 0.00 | 0.00 | 0.00 | 75 | 1015.8 |
| 20260507224327 | 65 | 30 | 1.0 | 4.0 | 0.00 | 0.00 | 0.00 | 75 | 1016.2 |
| 20260507223348 | 65 | 61 | 1.0 | 4.0 | 0.00 | 0.00 | 0.00 | 75 | 1016.6 |
| 20260507222330 | 65 | 35 | 2.0 | 4.0 | 0.00 | 0.00 | 0.00 | 73 | 1016.2 |
| 20260507221340 | 65 | 86 | 1.0 | 4.0 | 0.00 | 0.00 | 0.00 | 75 | 1016.4 |
| 20260507220331 | 65 | 44 | 3.0 | 7.0 | 0.00 | 0.00 | 0.00 | 74 | 1016.2 |
| 20260507215323 | 65 | 307 | 3.0 | 9.0 | 0.00 | 0.00 | 0.00 | 75 | 1017.2 |
| 20260507214334 | 65 | 360 | 4.0 | 8.0 | 0.00 | 0.00 | 0.00 | 74 | 1017.0 |
| 20260507213325 | 65 | 345 | 3.0 | 10.0 | 0.00 | 0.00 | 0.00 | 76 | 1017.3 |
| 20260507212331 | 64 | 340 | 5.0 | 8.0 | 0.00 | 0.00 | 0.00 | 76 | 1016.9 |
| 20260507211322 | 64 | 8 | 4.0 | 10.0 | 0.00 | 0.00 | 0.00 | 74 | 1017.0 |
| 20260507210332 | 64 | 22 | 4.0 | 9.0 | 0.00 | 0.00 | 0.00 | 75 | 1016.7 |
| 20260507205324 | 64 | 76 | 4.0 | 8.0 | 0.00 | 0.00 | 0.00 | 75 | 1016.8 |
| 20260507204335 | 64 | 30 | 1.0 | 9.0 | 0.00 | 0.00 | 0.00 | 76 | 1017.1 |
| 20260507203326 | 64 | 354 | 5.0 | 9.0 | 0.00 | 0.00 | 0.00 | 76 | 1017.4 |
| 20260507202336 | 64 | 360 | 3.0 | 6.0 | 0.00 | 0.00 | 0.00 | 76 | 1017.5 |
| 20260507201328 | 64 | 37 | 0.0 | 5.0 | 0.00 | 0.00 | 0.00 | 76 | 1017.7 |
| 20260507200339 | 64 | 30 | 4.0 | 8.0 | 0.00 | 0.00 | 0.00 | 78 | 1016.9 |
| 20260507195348 | 64 | 16 | 3.0 | 7.0 | 0.00 | 0.00 | 0.00 | 77 | 1017.5 |
| 20260507194339 | 64 | 35 | 2.0 | 8.0 | 0.00 | 0.00 | 0.00 | 76 | 1018.2 |
| 20260507193351 | 64 | 20 | 3.0 | 8.0 | 0.00 | 0.00 | 0.00 | 76 | 1018.2 |
| 20260507192343 | 64 | 5 | 3.0 | 7.0 | 0.00 | 0.00 | 0.00 | 76 | 1018.3 |
| 20260507191323 | 63 | 43 | 3.0 | 8.0 | 0.00 | 0.00 | 0.00 | 77 | 1018.0 |
| 20260507190334 | 63 | 28 | 5.0 | 8.0 | 0.00 | 0.00 | 0.00 | 77 | 1017.7 |
| 20260507185350 | 63 | 65 | 3.0 | 9.0 | 0.00 | 0.00 | 0.00 | 78 | 1018.2 |
| 20260507184333 | 62 | 37 | 6.0 | 12.0 | 0.00 | 0.00 | 0.00 | 78 | 1017.6 |
| 20260507183324 | 63 | 23 | 4.0 | 9.0 | 0.00 | 0.00 | 0.00 | 78 | 1017.8 |
| 20260507182335 | 62 | 34 | 5.0 | 11.0 | 0.00 | 0.00 | 0.00 | 79 | 1018.1 |
| 20260507181327 | 62 | 16 | 5.0 | 12.0 | 0.00 | 0.00 | 0.00 | 78 | 1018.2 |
| 20260507180337 | 63 | 14 | 5.0 | 7.0 | 0.00 | 0.00 | 0.00 | 78 | 1018.4 |
| 20260507175328 | 63 | 36 | 5.0 | 10.0 | 0.00 | 0.00 | 0.00 | 79 | 1018.9 |
| 20260507174340 | 62 | 42 | 5.0 | 13.0 | 0.00 | 0.00 | 0.00 | 80 | 1018.3 |
| 20260507173332 | 62 | 68 | 5.0 | 14.0 | 0.00 | 0.00 | 0.00 | 81 | 1017.9 |
| 20260507172323 | 61 | 13 | 6.0 | 12.0 | 0.00 | 0.00 | 0.00 | 83 | 1018.4 |
| 20260507171334 | 60 | 326 | 6.0 | 10.0 | 0.00 | 0.00 | 0.00 | 84 | 1019.0 |
| 20260507170325 | 60 | 21 | 4.0 | 10.0 | 0.00 | 0.00 | 0.00 | 85 | 1018.2 |
| 20260507165331 | 60 | 27 | 5.0 | 7.0 | 0.00 | 0.00 | 0.00 | 86 | 1018.0 |
| 20260507164342 | 60 | 39 | 3.0 | 10.0 | 0.00 | 0.00 | 0.00 | 84 | 1018.9 |
| 20260507163334 | 60 | 2 | 4.0 | 8.0 | 0.00 | 0.00 | 0.00 | 84 | 1019.7 |
| 20260507162344 | 60 | 13 | 1.0 | 2.0 | 0.00 | 0.00 | 0.00 | 84 | 1020.2 |
| 20260507161325 | 60 | 63 | 1.0 | 9.0 | 0.00 | 0.00 | 0.00 | 84 | 1019.6 |
| 20260507160346 | 60 | 17 | 3.0 | 8.0 | 0.00 | 0.00 | 0.00 | 86 | 1019.1 |
| 20260507155329 | 59 | 22 | 4.0 | 9.0 | 0.00 | 0.00 | 0.00 | 85 | 1019.6 |
| 20260507154338 | 59 | 333 | 3.0 | 6.0 | 0.00 | 0.00 | 0.00 | 85 | 1019.5 |
| 20260507153328 | 59 | 32 | 4.0 | 7.0 | 0.00 | 0.00 | 0.00 | 86 | 1019.0 |
| 20260507152338 | 59 | 29 | 5.0 | 10.0 | 0.00 | 0.00 | 0.00 | 85 | 1019.7 |
| 20260507151330 | 59 | 359 | 7.0 | 12.0 | 0.00 | 0.00 | 0.00 | 86 | 1019.0 |
| 20260507150341 | 58 | 7 | 3.0 | 10.0 | 0.00 | 0.00 | 0.00 | 87 | 1019.7 |
| 20260507145333 | 58 | 23 | 5.0 | 13.0 | 0.00 | 0.00 | 0.00 | 87 | 1019.5 |
| 20260507144323 | 58 | 32 | 9.0 | 15.0 | 0.00 | 0.00 | 0.00 | 87 | 1018.7 |
| 20260507143334 | 58 | 346 | 8.0 | 14.0 | 0.00 | 0.00 | 0.00 | 88 | 1018.9 |
| 20260507142324 | 58 | 1 | 5.0 | 13.0 | 0.00 | 0.00 | 0.00 | 90 | 1019.1 |
| 20260507141333 | 58 | 20 | 6.0 | 11.0 | 0.00 | 0.00 | 0.00 | 90 | 1019.1 |
| 20260507140325 | 58 | 31 | 6.0 | 11.0 | 0.00 | 0.00 | 0.00 | 91 | 1019.0 |
| 20260507135336 | 57 | 27 | 7.0 | 12.0 | 0.00 | 0.00 | 0.00 | 92 | 1018.7 |
| 20260507134327 | 57 | 354 | 8.0 | 14.0 | 0.00 | 0.00 | 0.00 | 92 | 1018.7 |
| 20260507133340 | 57 | 25 | 8.0 | 14.0 | 0.00 | 0.00 | 0.00 | 93 | 1018.5 |
| 20260507132331 | 57 | 14 | 11.0 | 16.0 | 0.00 | 0.00 | 0.00 | 94 | 1018.8 |
| 20260507131342 | 57 | 354 | 6.0 | 15.0 | 0.00 | 0.00 | 0.00 | 94 | 1018.9 |
| 20260507130324 | 56 | 2 | 7.0 | 14.0 | 0.00 | 0.00 | 0.00 | 94 | 1018.8 |
| 20260507125343 | 56 | 309 | 5.0 | 12.0 | 0.00 | 0.00 | 0.00 | 94 | 1018.7 |
| 20260507124324 | 56 | 358 | 6.0 | 12.0 | 0.00 | 0.00 | 0.00 | 95 | 1018.7 |
| 20260507123333 | 56 | 333 | 9.0 | 15.0 | 0.00 | 0.00 | 0.00 | 94 | 1018.8 |
| 20260507122324 | 56 | 21 | 9.0 | 17.0 | 0.00 | 0.00 | 0.00 | 94 | 1018.3 |
| 20260507121335 | 56 | 331 | 7.0 | 13.0 | 0.00 | 0.00 | 0.00 | 94 | 1018.3 |
| 20260507120326 | 57 | 347 | 6.0 | 14.0 | 0.00 | 0.00 | 0.00 | 94 | 1018.0 |
| 20260507115338 | 57 | 320 | 9.0 | 16.0 | 0.00 | 0.00 | 0.00 | 94 | 1017.8 |
| 20260507114330 | 57 | 18 | 7.0 | 13.0 | 0.00 | 0.00 | 0.00 | 93 | 1018.1 |
| 20260507113337 | 57 | 330 | 6.0 | 15.0 | 0.00 | 0.00 | 0.00 | 93 | 1018.2 |
| 20260507112329 | 57 | 15 | 6.0 | 11.0 | 0.00 | 0.00 | 0.00 | 93 | 1018.0 |
| 20260507111340 | 57 | 351 | 6.0 | 12.0 | 0.00 | 0.00 | 0.00 | 93 | 1017.9 |
| 20260507110330 | 57 | 15 | 8.0 | 13.0 | 0.00 | 0.00 | 0.00 | 93 | 1017.8 |
| 20260507105322 | 57 | 348 | 5.0 | 13.0 | 0.00 | 0.00 | 0.00 | 93 | 1017.8 |
| 20260507104334 | 57 | 6 | 5.0 | 9.0 | 0.00 | 0.00 | 0.00 | 92 | 1018.1 |
| 20260507103345 | 58 | 340 | 5.0 | 12.0 | 0.00 | 0.00 | 0.00 | 92 | 1017.5 |
| 20260507102335 | 58 | 354 | 6.0 | 10.0 | 0.00 | 0.00 | 0.00 | 92 | 1017.6 |
| 20260507101347 | 58 | 3 | 6.0 | 10.0 | 0.00 | 0.00 | 0.00 | 92 | 1017.6 |
| 20260507100338 | 58 | 28 | 5.0 | 10.0 | 0.00 | 0.00 | 0.00 | 92 | 1017.3 |
| 20260507095350 | 58 | 18 | 6.0 | 9.0 | 0.00 | 0.00 | 0.00 | 92 | 1017.5 |
| 20260507094333 | 58 | 19 | 6.0 | 11.0 | 0.00 | 0.00 | 0.00 | 92 | 1017.7 |
| 20260507093324 | 58 | 8 | 6.0 | 10.0 | 0.00 | 0.00 | 0.00 | 92 | 1017.0 |
| 20260507092335 | 58 | 355 | 4.0 | 10.0 | 0.00 | 0.00 | 0.00 | 92 | 1017.2 |
| 20260507091325 | 58 | 314 | 4.0 | 12.0 | 0.00 | 0.00 | 0.00 | 92 | 1017.0 |
| 20260507090337 | 58 | 18 | 6.0 | 11.0 | 0.00 | 0.00 | 0.00 | 92 | 1016.7 |
| 20260507085327 | 58 | 346 | 5.0 | 9.0 | 0.00 | 0.00 | 0.00 | 92 | 1016.6 |